Regional Weather Roundup
Issued by NWS

Home | Current Version | Previous Version | Graphics & Text | Print | Product List | Glossary On
Versions: 1 2 3 4 5 6 7 8 9 10 11 12 13 14 15 16 17 18 19 20 21 22 23 24 25 26 27 28 29 30 31 32 33 34 35 36 37 38 39 40 41 42 43 44 45 46 47 48 49 50
000
ASUS43 KDTX 280910
RWRMI
MICHIGAN HOURLY REGIONAL WEATHER ROUNDUP
NATIONAL WEATHER SERVICE DETROIT/PONTIAC MI
500 AM EDT TUE JUL 28 2015

NOTE: "FAIR" INDICATES FEW OR NO CLOUDS BELOW 12,000 FEET WITH NO
SIGNIFICANT WEATHER AND/OR OBSTRUCTION TO VISIBILITY.

MIZ047>049-052>055-059>063-066>070-074>076-081>083-281000-
SOUTHEAST LOWER MICHIGAN

CITY           SKY/WX    TMP DP  RH WIND       PRES   REMARKS
ADRIAN         CLEAR     61  59  93 CALM      30.03F
ALMA           CLEAR     62  62  99 CALM      30.03F FOG
ANN ARBOR      PTCLDY    59  59 100 W5        30.03S FOG
BAD AXE        CLEAR     62  60  94 CALM      30.04F
CARO           CLEAR     61  61  98 CALM      30.03F FOG
DETROIT CITY   CLEAR     70  63  78 CALM      30.02F
DETROIT        PTCLDY    70  63  78 N3        30.02F
FLINT          CLEAR     67  63  87 CALM      30.03F
GROSSE ILE     CLEAR     68  64  88 CALM      30.00F
HILLSDALE      CLEAR     61  61 100 CALM      30.05R
HOWELL         CLEAR     64  62  94 CALM      30.03F

CITY           SKY/WX    TMP DP  RH WIND       PRES   REMARKS
JACKSON        CLEAR     63  61  93 CALM      30.04S FOG
LAMBERTVILLE   CLEAR     64  62  91 CALM      30.02S FOG
LANSING        CLEAR     65  63  93 CALM      30.04F
LAPEER         FAIR      59  59 100 CALM      30.04F
MASON          CLEAR     61  60  98 CALM      30.04S
MONROE         CLEAR     63  62  98 CALM      30.01S
MT. CLEMENS    CLEAR     65  63  93 CALM      30.00F
PONTIAC        CLEAR     65  63  93 CALM      30.03F FOG
PORT HOPE        N/A     66  64  93 CALM      30.01F
PORT HURON     FOG       59  59 100 CALM      30.03F VSB 1/2
TRI CITIES     CLEAR     69  64  84 SW6       30.03F
MIDLAND        FAIR      63  62  96 CALM      30.02S
TROY           CLEAR     70  62  77 CALM      30.04F
SAGINAW HB     CLEAR     64  63  94 CALM      30.02S
$$
MIZ043>046-050>051-056>058-064>065-071>073-077>080-281000-
SOUTHWEST LOWER MICHIGAN

CITY           SKY/WX    TMP DP  RH WIND       PRES   REMARKS
BATTLE CREEK   CLEAR     66  62  87 CALM      30.05R
BENTON HARBOR  CLEAR     62  61  96 E3        30.01S
BIG RAPIDS     CLEAR     63  60  90 CALM      30.04S
COLDWATER      CLEAR     61  61  99 CALM      30.03S
FREMONT        FAIR      63  62  96 CALM      30.03S
HOLLAND        CLEAR     65  63  93 CALM      30.03S FOG
GRAND RAPIDS   CLEAR     67  64  90 E3        30.03S
IONIA          FAIR      64  62  94 E3        30.03S
KALAMAZOO      CLEAR     64  61  90 CALM      30.04R
LUDINGTON      CLEAR     61  58  91 CALM      30.02S
MARSHALL       CLEAR     62  61  97 CALM      30.04R
MOUNT PLEASANT CLEAR     64  62  96 CALM      30.02F FOG
MUSKEGON       CLEAR     68  61  78 SE3       30.02F
SOUTH HAVEN    CLEAR     64  62  94 CALM      30.02S
$$
MIZ016>042-281000-
NORTHERN LOWER MICHIGAN

CITY           SKY/WX    TMP DP  RH WIND       PRES   REMARKS
ALPENA         CLEAR     63  59  87 CALM      30.03F
BEAVER ISLAND  CLEAR     61  59  93 CALM      30.02F
BELLAIRE       CLEAR     58  57  96 CALM      30.03F FOG
CADILLAC       CLEAR     58  56  94 CALM      30.05S
CHARLEVOIX     CLEAR     64  61  88 E5        30.05S
FRANKFORT      PTCLDY    60  58  92 CALM      30.02S
GAYLORD        CLEAR     63  60  90 CALM      30.06F
GRAYLING       FOG       55  54  95 CALM      30.06F VSB 1
HARBOR SPRINGS CLEAR     62  59  92 CALM      30.03S
HOUGHTON LAKE  CLEAR     61  59  93 CALM      30.05F
MANISTEE       CLEAR     61  55  82 E5        30.02F
OSCODA         CLEAR     60  58  94 N6        30.02F
PELLSTON       CLEAR     57  56  96 CALM      30.04S
ROGERS CITY    CLEAR     67  61  81 SW6       30.04S
TRAVERSE CITY  PTCLDY    64  60  87 CALM      30.01F
$$
MIZ007>008-015-281000-
EASTERN UPPER MICHIGAN

CITY           SKY/WX    TMP DP  RH WIND       PRES   REMARKS
KINROSS        CLEAR     66  63  88 CALM      30.03S
MACKINAC ISLAN CLEAR     67  61  80 SW8       30.03R
MUNISING         N/A     69  62  78 SW3       29.98F
$$
MIZ004>006-011>014-085-281000-
CENTRAL UPPER MICHIGAN

CITY           SKY/WX    TMP DP  RH WIND       PRES   REMARKS
MANISTIQUE     FOG       57  55  94 CALM      30.00F VSB 1/4
ESCANABA       PTCLDY    57  55  94 CALM      29.99F
MENOMINEE      CLEAR     64  59  82 SW3       29.99F
SAWYER-GWINN   PTCLDY    62  57  84 CALM      30.01F
$$
MIZ001>003-009>011-084-281000-
WESTERN UPPER MICHIGAN

CITY           SKY/WX    TMP DP  RH WIND       PRES   REMARKS
IRON MOUNTAIN  PTCLDY    59  58  96 CALM      30.00S FOG
HOUGHTON       CLEAR     62  61  96 CALM      29.96F
COPPER HARBOR    N/A     71  62  73 CALM      29.95S
IRONWOOD       CLEAR     70  63  78 S7        29.92F
$$

ABBREVIATIONS USED IN REMARKS
   TC - TEMPERATURE IN CELSIUS
  WCI - WIND CHILL INDEX
   HX - HEAT INDEX
  VSB - VISIBILITY




USA.gov is the U.S. government's official web portal to all federal, state and local government web resources and services.